GW4285 Weather Reports


Display with metric or nautical units.
time (UTC)temp
F
wind
direction
speed
MPH
gust
MPH
rain 1hr
in
rain 24hr
in
rain mn
in
humidity
%
barometer
mb
20260902190249 67 244 7.0 11.0 0.00 0.00 0.00 81 1018.0
20260902185744 66 253 1.0 5.0 0.00 0.00 0.00 84 1018.1
20260902185240 66 238 2.0 5.0 0.00 0.00 0.00 84 1018.1
20260902184736 66 263 5.0 5.0 0.00 0.00 0.00 84 1018.1
20260902184231 66 261 3.0 5.0 0.00 0.00 0.00 84 1018.0
20260902183727 66 255 0.0 3.0 0.00 0.00 0.00 86 1018.1
20260902183223 65 253 0.0 3.0 0.00 0.00 0.00 88 1018.1
20260902182719 64 252 2.0 4.0 0.00 0.00 0.00 91 1018.2
20260902182215 63 265 2.0 5.0 0.00 0.00 0.00 92 1018.3
20260902181712 63 249 0.0 5.0 0.00 0.00 0.00 93 1018.0
20260902181211 63 256 4.0 7.0 0.00 0.00 0.00 90 1018.0
20260902180706 63 255 5.0 7.0 0.00 0.00 0.00 91 1017.9
20260902180201 63 274 2.0 5.0 0.00 0.00 0.00 92 1017.9
20260902175701 63 259 2.0 4.0 0.00 0.00 0.00 93 1017.9
20260902175157 63 231 0.0 1.0 0.00 0.00 0.00 93 1017.9
20260902174654 62 284 0.0 0.0 0.00 0.00 0.00 94 1017.9
20260902174149 62 230 1.0 3.0 0.00 0.00 0.00 94 1017.8
20260902173644 62 291 0.0 1.0 0.00 0.00 0.00 95 1017.8
20260902173139 62 259 0.0 1.0 0.00 0.00 0.00 95 1017.8
20260902172633 61 261 2.0 3.0 0.00 0.00 0.00 95 1017.7
20260902172132 61 264 0.0 1.0 0.00 0.00 0.00 95 1017.6
20260902171628 61 248 2.0 3.0 0.00 0.00 0.00 95 1017.6
20260902171124 61 282 2.0 3.0 0.00 0.00 0.00 96 1017.5
20260902170620 61 283 0.0 3.0 0.00 0.00 0.00 96 1017.5
20260902170115 61 266 0.0 0.0 0.00 0.00 0.00 97 1017.4
20260902165615 61 275 3.0 5.0 0.00 0.00 0.00 96 1017.4
20260902165109 61 266 0.0 0.0 0.00 0.00 0.00 97 1017.4
20260902164605 61 257 0.0 4.0 0.00 0.00 0.00 97 1017.3
20260902164103 60 250 0.0 3.0 0.00 0.00 0.00 98 1017.3
20260902163559 60 250 0.0 0.0 0.00 0.00 0.00 98 1017.2
20260902163057 60 212 2.0 4.0 0.00 0.00 0.00 98 1017.2
20260902162556 61 262 2.0 3.0 0.00 0.00 0.00 98 1017.2
20260902162052 60 264 0.0 0.0 0.00 0.00 0.00 98 1017.1
20260902161552 60 242 0.0 3.0 0.00 0.00 0.00 98 1017.2
20260902161048 60 252 0.0 3.0 0.00 0.00 0.00 98 1017.0
20260902160544 60 260 0.0 0.0 0.00 0.00 0.00 98 1017.2
20260902160039 60 239 2.0 5.0 0.00 0.00 0.00 98 1017.2
20260902155532 60 251 0.0 0.0 0.00 0.00 0.00 98 1017.2
20260902155031 60 254 0.0 3.0 0.00 0.00 0.00 99 1017.2
20260902154526 60 256 0.0 0.0 0.00 0.00 0.00 99 1017.2
20260902154021 60 236 0.0 0.0 0.00 0.00 0.00 99 1017.3
20260902153519 60 271 0.0 1.0 0.00 0.00 0.00 99 1017.2
20260902153015 60 259 0.0 0.0 0.00 0.00 0.00 99 1017.0
20260902152512 59 255 0.0 3.0 0.00 0.00 0.00 98 1017.0
20260902152007 59 250 0.0 0.0 0.00 0.00 0.00 98 1016.9
20260902151503 59 269 0.0 0.0 0.00 0.00 0.00 98 1016.9
20260902150956 59 254 0.0 0.0 0.00 0.00 0.00 98 1017.0
20260902150452 59 272 0.0 1.0 0.00 0.00 0.00 98 1017.1
20260902145952 59 242 0.0 4.0 0.00 0.00 0.00 97 1017.0
20260902145447 59 213 1.0 3.0 0.00 0.00 0.00 97 1017.1
20260902144947 59 278 2.0 3.0 0.00 0.00 0.00 96 1016.9
20260902144444 59 230 1.0 3.0 0.00 0.00 0.00 95 1016.8
20260902143943 60 285 0.0 1.0 0.00 0.00 0.00 94 1016.8
20260902143439 60 271 0.0 0.0 0.00 0.00 0.00 93 1016.7
20260902142934 60 271 0.0 0.0 0.00 0.00 0.00 93 1016.7
20260902142430 60 278 0.0 1.0 0.00 0.00 0.00 92 1016.6
20260902141925 60 249 0.0 0.0 0.00 0.00 0.00 91 1016.5
20260902141421 60 52 0.0 3.0 0.00 0.00 0.00 91 1016.4
20260902140919 60 199 1.0 4.0 0.00 0.00 0.00 91 1016.2
20260902140415 60 91 0.0 3.0 0.00 0.00 0.00 92 1016.2
20260902135909 60 263 0.0 0.0 0.00 0.00 0.00 93 1016.2
20260902135406 60 113 3.0 4.0 0.00 0.00 0.00 93 1016.2
20260902134905 60 310 1.0 1.0 0.00 0.00 0.00 93 1016.2
20260902134401 60 319 0.0 4.0 0.00 0.00 0.00 92 1016.3
20260902133901 60 255 0.0 3.0 0.00 0.00 0.00 92 1016.4
20260902133400 60 292 0.0 0.0 0.00 0.00 0.00 92 1016.2
20260902132855 60 280 2.0 3.0 0.00 0.00 0.00 92 1016.2
20260902132350 60 247 0.0 0.0 0.00 0.00 0.00 92 1016.3
20260902131846 60 349 0.0 3.0 0.00 0.00 0.00 92 1016.2
20260902131343 60 264 1.0 5.0 0.00 0.00 0.00 92 1016.2
20260902130842 60 265 0.0 1.0 0.00 0.00 0.00 93 1016.0
20260902130338 60 307 0.0 0.0 0.00 0.00 0.00 93 1016.0
20260902125832 60 246 0.0 1.0 0.00 0.00 0.00 94 1015.9
20260902125329 60 187 4.0 7.0 0.00 0.00 0.00 94 1015.9
20260902124825 60 304 0.0 1.0 0.00 0.00 0.00 94 1016.1
20260902124320 60 289 0.0 1.0 0.00 0.00 0.00 95 1016.0
20260902123815 60 209 2.0 3.0 0.00 0.00 0.00 95 1016.1
20260902123312 60 319 0.0 0.0 0.00 0.00 0.00 95 1016.1
20260902122810 60 160 0.0 3.0 0.00 0.00 0.00 95 1016.1
20260902122307 59 67 1.0 3.0 0.00 0.00 0.00 95 1016.2
20260902121806 59 156 0.0 4.0 0.00 0.00 0.00 95 1016.1
20260902121301 60 282 0.0 0.0 0.00 0.00 0.00 94 1016.1
20260902120756 60 282 0.0 0.0 0.00 0.00 0.00 94 1016.0
20260902120253 60 240 0.0 0.0 0.00 0.00 0.00 92 1016.1
20260902115747 60 256 0.0 0.0 0.00 0.00 0.00 91 1016.1
20260902115244 60 172 2.0 5.0 0.00 0.00 0.00 91 1016.1
20260902114739 60 218 0.0 3.0 0.00 0.00 0.00 91 1016.1
20260902114235 60 241 0.0 1.0 0.00 0.00 0.00 92 1015.9
20260902113729 60 265 0.0 1.0 0.00 0.00 0.00 91 1016.1
20260902113225 60 245 1.0 3.0 0.00 0.00 0.00 92 1016.0
20260902112718 60 164 0.0 3.0 0.00 0.00 0.00 92 1016.1
20260902112216 60 305 0.0 0.0 0.00 0.00 0.00 92 1016.1
20260902111711 60 267 0.0 1.0 0.00 0.00 0.00 92 1016.0
20260902111207 60 246 0.0 0.0 0.00 0.00 0.00 92 1016.0
20260902110702 60 252 0.0 0.0 0.00 0.00 0.00 92 1015.9
20260902110158 60 256 0.0 3.0 0.00 0.00 0.00 92 1016.0
20260902105657 60 223 0.0 0.0 0.00 0.00 0.00 92 1016.0
20260902105153 60 257 0.0 0.0 0.00 0.00 0.00 92 1016.0
20260902104648 60 266 0.0 0.0 0.00 0.00 0.00 92 1016.1
20260902104144 60 266 0.0 0.0 0.00 0.00 0.00 92 1016.2
20260902103643 60 261 0.0 0.0 0.00 0.00 0.00 92 1016.2
20260902103138 60 215 0.0 0.0 0.00 0.00 0.00 92 1016.2
20260902102634 60 270 0.0 0.0 0.00 0.00 0.00 92 1016.1
20260902102131 60 251 0.0 0.0 0.00 0.00 0.00 92 1016.3
20260902101627 60 264 0.0 0.0 0.00 0.00 0.00 92 1016.3
20260902101120 60 263 0.0 0.0 0.00 0.00 0.00 92 1016.4
20260902100615 60 232 0.0 0.0 0.00 0.00 0.00 92 1016.4
20260902100110 59 255 0.0 0.0 0.00 0.00 0.00 92 1016.3
20260902095609 59 308 0.0 0.0 0.00 0.00 0.00 92 1016.5
20260902095108 59 308 0.0 0.0 0.00 0.00 0.00 93 1016.5
20260902094603 59 308 0.0 0.0 0.00 0.00 0.00 93 1016.4
20260902094100 59 308 0.0 0.0 0.00 0.00 0.00 93 1016.4
20260902093559 59 308 0.0 0.0 0.00 0.00 0.00 93 1016.4
20260902093054 58 308 0.0 0.0 0.00 0.00 0.00 94 1016.3
20260902092549 58 307 0.0 0.0 0.00 0.00 0.00 94 1016.4
20260902092044 58 308 0.0 0.0 0.00 0.00 0.00 94 1016.5
20260902091539 58 308 0.0 0.0 0.00 0.00 0.00 93 1016.6
20260902091036 58 308 0.0 0.0 0.00 0.00 0.00 93 1016.6
20260902090531 58 308 0.0 0.0 0.00 0.00 0.00 93 1016.6
20260902090030 59 309 0.0 0.0 0.00 0.00 0.00 93 1016.7
20260902085530 59 301 0.0 0.0 0.00 0.00 0.00 93 1016.7
20260902085026 58 286 0.0 0.0 0.00 0.00 0.00 93 1016.7
20260902084522 59 278 0.0 0.0 0.00 0.00 0.00 93 1016.8
20260902084017 59 277 0.0 0.0 0.00 0.00 0.00 93 1016.9
20260902083512 59 277 0.0 0.0 0.00 0.00 0.00 93 1016.8
20260902083006 59 277 0.0 0.0 0.00 0.00 0.00 93 1016.8
20260902082502 59 277 0.0 0.0 0.00 0.00 0.00 93 1016.8
20260902081959 59 277 0.0 0.0 0.00 0.00 0.00 93 1016.7
20260902081455 59 277 0.0 0.0 0.00 0.00 0.00 93 1016.8
20260902080949 59 276 0.0 0.0 0.00 0.00 0.00 93 1016.9
20260902080445 59 276 0.0 0.0 0.00 0.00 0.00 94 1016.9
20260902075945 58 276 0.0 0.0 0.00 0.00 0.00 94 1016.8
20260902075441 58 276 0.0 0.0 0.00 0.00 0.00 94 1016.7
20260902074936 58 264 0.0 0.0 0.00 0.00 0.00 94 1016.5
20260902074432 58 263 0.0 0.0 0.00 0.00 0.00 94 1016.7
20260902073927 58 280 0.0 0.0 0.00 0.00 0.00 94 1016.8
20260902073423 58 275 0.0 0.0 0.00 0.00 0.00 94 1016.7
20260902072919 58 270 0.0 0.0 0.00 0.00 0.00 94 1016.8
20260902072414 58 286 0.0 0.0 0.00 0.00 0.00 94 1016.7
20260902071911 58 284 0.0 0.0 0.00 0.00 0.00 95 1016.8
20260902071410 57 260 0.0 0.0 0.00 0.00 0.00 95 1016.8
20260902070907 57 319 0.0 0.0 0.00 0.00 0.00 95 1016.7
20260902070402 57 310 0.0 0.0 0.00 0.00 0.00 95 1016.8
20260902065901 58 310 0.0 0.0 0.00 0.00 0.00 95 1016.7
20260902065355 57 309 0.0 0.0 0.00 0.00 0.00 95 1016.7
20260902064851 57 310 0.0 0.0 0.00 0.00 0.00 95 1016.7
20260902064347 57 309 0.0 0.0 0.00 0.00 0.00 95 1016.7
20260902063842 57 308 0.0 0.0 0.00 0.00 0.00 96 1016.6
20260902063336 57 300 0.0 0.0 0.00 0.00 0.00 96 1016.6
20260902062836 57 300 0.0 0.0 0.00 0.00 0.00 96 1016.7
20260902062331 57 300 0.0 0.0 0.00 0.00 0.00 96 1016.5
20260902061830 57 300 0.0 0.0 0.00 0.00 0.00 95 1016.6
20260902061326 57 300 0.0 0.0 0.00 0.00 0.00 95 1016.6
20260902060822 57 300 0.0 0.0 0.00 0.00 0.00 95 1016.6
20260902060318 58 300 0.0 0.0 0.00 0.00 0.00 95 1016.6
20260902055813 58 208 0.0 0.0 0.00 0.00 0.00 95 1016.7
20260902055309 58 208 0.0 0.0 0.00 0.00 0.00 95 1016.7
20260902054804 58 208 0.0 0.0 0.00 0.00 0.00 95 1016.7
20260902054300 58 208 0.0 0.0 0.00 0.00 0.00 95 1016.8
20260902053755 58 208 0.0 0.0 0.00 0.00 0.00 95 1016.7
20260902053254 58 208 0.0 0.0 0.00 0.00 0.00 95 1016.8
20260902052754 59 207 0.0 0.0 0.00 0.00 0.00 95 1016.6
20260902052249 59 207 0.0 0.0 0.00 0.00 0.00 95 1016.8
20260902051743 59 207 0.0 0.0 0.00 0.00 0.00 95 1016.7
20260902051237 59 265 0.0 0.0 0.00 0.00 0.00 95 1016.8
20260902050733 59 244 0.0 0.0 0.00 0.00 0.00 95 1016.8
20260902050228 59 247 0.0 0.0 0.00 0.00 0.00 94 1016.8
20260902045728 59 263 0.0 0.0 0.00 0.00 0.00 94 1016.8
20260902045224 59 263 0.0 0.0 0.00 0.00 0.00 94 1016.9
20260902044720 60 263 0.0 0.0 0.00 0.00 0.00 94 1016.8
20260902044215 60 263 0.0 0.0 0.00 0.00 0.00 94 1017.0
20260902043715 60 254 0.0 0.0 0.00 0.00 0.00 93 1016.9
20260902043211 60 259 0.0 0.0 0.00 0.00 0.00 93 1017.0
20260902042710 60 269 0.0 1.0 0.00 0.00 0.00 93 1016.9
20260902042205 60 255 0.0 1.0 0.00 0.00 0.00 93 1016.8
20260902041700 60 256 0.0 0.0 0.00 0.00 0.00 93 1016.7
20260902041155 60 266 0.0 3.0 0.00 0.00 0.00 93 1016.6
20260902040654 60 253 0.0 1.0 0.00 0.00 0.00 92 1016.6
20260902040149 60 254 0.0 0.0 0.00 0.00 0.00 92 1016.4
20260902035648 60 269 0.0 0.0 0.00 0.00 0.00 92 1016.2
20260902035144 60 262 0.0 0.0 0.00 0.00 0.00 92 1016.4
20260902034643 60 262 0.0 1.0 0.00 0.00 0.00 92 1016.5
20260902034143 60 254 1.0 4.0 0.00 0.00 0.00 91 1016.5
20260902033642 60 260 0.0 0.0 0.00 0.00 0.00 91 1016.4
20260902033137 60 257 0.0 0.0 0.00 0.00 0.00 91 1016.4
20260902032635 60 244 3.0 3.0 0.00 0.00 0.00 91 1016.3
20260902032135 60 260 0.0 0.0 0.00 0.00 0.00 91 1016.3
20260902031630 60 259 0.0 0.0 0.00 0.00 0.00 91 1016.2
20260902031127 60 262 0.0 1.0 0.00 0.00 0.00 91 1016.1
20260902030622 60 252 0.0 0.0 0.00 0.00 0.00 91 1016.1
20260902030121 61 250 2.0 4.0 0.00 0.00 0.00 90 1016.2
20260902025620 61 251 0.0 5.0 0.00 0.00 0.00 90 1016.2
20260902025116 61 251 2.0 5.0 0.00 0.00 0.00 89 1016.1
20260902024611 61 245 1.0 4.0 0.00 0.00 0.00 89 1016.1
20260902024106 61 255 4.0 7.0 0.00 0.00 0.00 88 1016.2
20260902023602 61 262 4.0 12.0 0.00 0.00 0.00 88 1016.2
20260902023057 62 254 2.0 8.0 0.00 0.00 0.00 87 1016.3
20260902022556 62 249 4.0 8.0 0.00 0.00 0.00 86 1016.1
20260902022053 62 247 1.0 12.0 0.00 0.00 0.00 85 1016.0
20260902021547 62 251 4.0 10.0 0.00 0.00 0.00 84 1016.1
20260902021043 62 248 6.0 10.0 0.00 0.00 0.00 84 1016.1
20260902020538 62 270 3.0 11.0 0.00 0.00 0.00 83 1016.1
20260902020034 62 250 2.0 8.0 0.00 0.00 0.00 84 1016.1
20260902015530 62 244 5.0 10.0 0.00 0.00 0.00 83 1016.1
20260902015025 63 247 5.0 11.0 0.00 0.00 0.00 82 1016.0
20260902014521 63 274 7.0 10.0 0.00 0.00 0.00 81 1016.0
20260902014016 63 262 6.0 7.0 0.00 0.00 0.00 81 1016.1
20260902013511 63 283 3.0 10.0 0.00 0.00 0.00 80 1015.9
20260902013007 64 250 4.0 16.0 0.00 0.00 0.00 79 1016.0
20260902012501 64 242 9.0 12.0 0.00 0.00 0.00 78 1016.2
20260902011957 64 253 7.0 12.0 0.00 0.00 0.00 77 1016.1
20260902011453 64 247 9.0 18.0 0.00 0.00 0.00 76 1016.1
20260902010952 65 236 7.0 15.0 0.00 0.00 0.00 74 1016.0
20260902010446 65 255 5.0 12.0 0.00 0.00 0.00 73 1015.9
20260902005945 66 265 10.0 15.0 0.00 0.00 0.00 71 1015.9
20260902005444 65 261 5.0 11.0 0.00 0.00 0.00 68 1015.8
20260902004941 65 253 4.0 10.0 0.00 0.00 0.00 69 1015.8
20260902004440 66 261 12.0 15.0 0.00 0.00 0.00 67 1015.8
20260902003936 65 244 6.0 15.0 0.00 0.00 0.00 70 1016.0
20260902003436 65 267 4.0 12.0 0.00 0.00 0.00 71 1015.7
20260902002931 66 264 6.0 14.0 0.00 0.00 0.00 68 1015.8
20260902002426 66 246 10.0 16.0 0.00 0.00 0.00 68 1015.7
20260902001926 66 236 3.0 7.0 0.00 0.00 0.00 69 1015.8
20260902001421 65 239 7.0 14.0 0.00 0.00 0.00 68 1015.7
20260902000916 66 269 5.0 14.0 0.00 0.00 0.00 66 1015.7
20260902000414 66 265 5.0 12.0 0.00 0.00 0.00 67 1015.8
20260901235907 66 284 10.0 16.0 0.00 0.00 0.00 65 1015.6
20260901235407 67 238 7.0 16.0 0.00 0.00 0.00 64 1015.7
20260901234902 68 291 7.0 10.0 0.00 0.00 0.00 61 1015.6
20260901234355 68 237 5.0 8.0 0.00 0.00 0.00 61 1015.7
20260901233850 68 228 10.0 14.0 0.00 0.00 0.00 63 1015.7
20260901233346 69 244 5.0 12.0 0.00 0.00 0.00 61 1015.8
20260901232842 69 259 11.0 14.0 0.00 0.00 0.00 60 1015.8
20260901232337 70 259 5.0 18.0 0.00 0.00 0.00 60 1015.8
20260901231833 69 236 12.0 15.0 0.00 0.00 0.00 61 1015.8
20260901231329 67 253 7.0 16.0 0.00 0.00 0.00 65 1015.8
20260901230825 67 240 9.0 14.0 0.00 0.00 0.00 64 1015.8
20260901230324 66 241 3.0 14.0 0.00 0.00 0.00 65 1015.8
20260901225820 67 262 9.0 12.0 0.00 0.00 0.00 63 1015.8
20260901225319 67 231 6.0 14.0 0.00 0.00 0.00 63 1015.8
20260901224815 69 259 7.0 15.0 0.00 0.00 0.00 62 1015.8
20260901224311 68 290 3.0 12.0 0.00 0.00 0.00 61 1015.9
20260901223807 67 273 5.0 14.0 0.00 0.00 0.00 61 1015.9
20260901223302 67 290 8.0 12.0 0.00 0.00 0.00 60 1015.8
20260901222758 68 245 5.0 19.0 0.00 0.00 0.00 60 1016.0
20260901222254 68 251 11.0 19.0 0.00 0.00 0.00 59 1015.9
20260901221749 68 245 7.0 18.0 0.00 0.00 0.00 61 1016.2
20260901221244 68 263 3.0 7.0 0.00 0.00 0.00 59 1016.1
20260901220739 68 245 3.0 12.0 0.00 0.00 0.00 59 1016.1
20260901220238 68 230 5.0 10.0 0.00 0.00 0.00 59 1016.0
20260901215737 69 258 6.0 10.0 0.00 0.00 0.00 58 1016.0
20260901215231 69 231 5.0 14.0 0.00 0.00 0.00 60 1016.0
20260901214730 69 236 12.0 16.0 0.00 0.00 0.00 60 1015.9
20260901214223 69 278 4.0 15.0 0.00 0.00 0.00 58 1015.9
20260901213718 68 233 8.0 11.0 0.00 0.00 0.00 60 1015.9
20260901213213 69 226 5.0 10.0 0.00 0.00 0.00 59 1015.8
20260901212712 68 252 2.0 12.0 0.00 0.00 0.00 60 1015.8
20260901212209 69 246 5.0 11.0 0.00 0.00 0.00 58 1016.0
20260901211708 69 253 5.0 8.0 0.00 0.00 0.00 58 1015.8
20260901211205 70 270 7.0 14.0 0.00 0.00 0.00 57 1015.9
20260901210701 70 215 6.0 14.0 0.00 0.00 0.00 57 1015.8
20260901210156 69 245 7.0 15.0 0.00 0.00 0.00 59 1015.9
20260901205651 71 256 1.0 3.0 0.00 0.00 0.00 54 1015.8
20260901205146 69 244 4.0 11.0 0.00 0.00 0.00 56 1015.8
20260901204642 69 256 2.0 10.0 0.00 0.00 0.00 56 1015.9
20260901204137 69 287 4.0 8.0 0.00 0.00 0.00 56 1015.9
20260901203636 73 220 4.0 8.0 0.00 0.00 0.00 52 1015.9
20260901203131 69 245 7.0 12.0 0.00 0.00 0.00 54 1015.9
20260901202631 71 249 5.0 11.0 0.00 0.00 0.00 52 1016.0
20260901202127 72 273 10.0 14.0 0.00 0.00 0.00 51 1016.2
20260901201623 72 259 3.0 7.0 0.00 0.00 0.00 51 1016.1
20260901201122 70 255 7.0 15.0 0.00 0.00 0.00 54 1016.2
20260901200616 70 211 3.0 5.0 0.00 0.00 0.00 52 1016.0
20260901200111 69 245 0.0 10.0 0.00 0.00 0.00 54 1016.2
20260901195609 69 238 4.0 7.0 0.00 0.00 0.00 56 1016.2
20260901195108 70 264 5.0 11.0 0.00 0.00 0.00 56 1016.3
20260901194604 69 273 6.0 8.0 0.00 0.00 0.00 56 1016.1
20260901194059 70 236 6.0 11.0 0.00 0.00 0.00 57 1016.2
20260901193555 67 250 3.0 8.0 0.00 0.00 0.00 62 1016.2
20260901193049 68 255 5.0 11.0 0.00 0.00 0.00 62 1016.3
20260901192544 69 269 11.0 15.0 0.00 0.00 0.00 61 1016.3
20260901192040 69 239 5.0 10.0 0.00 0.00 0.00 61 1016.2
20260901191536 70 89 0.0 3.0 0.00 0.00 0.00 60 1016.3
20260901191032 69 251 5.0 11.0 0.00 0.00 0.00 62 1016.4